This is the latest recevied weather packets stored in our database for station/object CALDNA-WX. If no packets are shown the sender has not sent any weather packets the latest 10 day(s).
| Time | Temp. | Humidity | Pressure | Rain* | Wind** | Luminosity | Snow |
|---|---|---|---|---|---|---|---|
| 1778037323 | 6.67° C | 59% | 982.3 hPa | 0 mm | - | - | - |
| 1778036455 | 7.22° C | 59% | 982.3 hPa | 0 mm | - | - | - |
| 1778035523 | 7.22° C | 52% | 982.5 hPa | 0 mm | - | - | - |
| 1778034641 | 7.22° C | 49% | 982.5 hPa | 0 mm | - | - | - |
| 1778033722 | 7.78° C | 49% | 982.5 hPa | 0 mm | - | - | - |
| 1778032844 | 7.78° C | 49% | 982.5 hPa | 0 mm | - | - | - |
| 1778031923 | 7.78° C | 44% | 982.2 hPa | 0 mm | - | - | - |
| 1778031043 | 7.78° C | 44% | 982.2 hPa | 0 mm | - | - | - |
| 1778030123 | 8.33° C | 44% | 982.2 hPa | 0 mm | - | - | - |
| 1778029247 | 8.89° C | 44% | 982.2 hPa | 0 mm | - | - | - |
| 1778028322 | 9.44° C | 37% | 982.3 hPa | 0 mm | - | - | - |
| 1778027437 | 9.44° C | 37% | 982.5 hPa | 0 mm | - | - | - |
| 1778026522 | 10° C | 37% | 982.5 hPa | 0 mm | - | - | - |
| 1778025650 | 10.56° C | 37% | 982.5 hPa | 0 mm | - | - | - |
| 1778024722 | 10.56° C | 35% | 982.3 hPa | 0 mm | - | - | - |
| 1778023839 | 11.11° C | 34% | 982.1 hPa | 0 mm | - | - | - |
| 1778022922 | 11.11° C | 34% | 982.1 hPa | 0 mm | - | - | - |
| 1778022046 | 11.11° C | 34% | 982.1 hPa | 0 mm | - | - | - |
| 1778021122 | 11.11° C | 35% | 982.1 hPa | 0 mm | - | - | - |
| 1778020241 | 11.11° C | 35% | 982.4 hPa | 0 mm | - | - | - |
| 1778019322 | 11.67° C | 35% | 982.4 hPa | 0 mm | - | - | - |
| 1778018449 | 11.67° C | 35% | 982.4 hPa | 0 mm | - | - | - |
| 1778017521 | 12.22° C | 37% | 982.1 hPa | 0 mm | - | - | - |
| 1778016641 | 11.67° C | 36% | 981.8 hPa | 0 mm | - | - | - |
| 1778015721 | 12.22° C | 36% | 981.8 hPa | 0 mm | - | - | - |
* Rain latest hour (hover to see other rain measurements)
** Current wind speed in m/s (hover to see current wind gust speed)